Time,TemperatureF,DewpointF,PressureIn,WindDirection,WindDirectionDegrees,WindSpeedMPH,WindSpeedGustMPH,Humidity,HourlyPrecipIn,Conditions,Clouds,dailyrainin,SolarRadiationWatts/m^2,SoftwareType,DateUTC
2013-10-28 00:04:00,42.5,32.3,30.10,NE,34,1.2,6.0,67,0.00,CLR,,0.00,0.0,WeatherDisplay:10.37,2013-10-28 05:04:00,
2013-10-28 00:09:00,42.3,32.1,30.10,North,11,1.7,4.6,67,0.00,CLR,,0.00,0.0,WeatherDisplay:10.37,2013-10-28 05:09:00,
2013-10-28 00:14:00,42.1,31.9,30.11,NNE,13,4.1,7.2,67,0.00,CLR,,0.00,0.0,WeatherDisplay:10.37,2013-10-28 05:14:00,
2013-10-28 00:19:00,41.9,31.7,30.11,NNE,20,4.6,10.8,67,0.00,CLR,,0.00,0.0,WeatherDisplay:10.37,2013-10-28 05:19:00,
2013-10-28 00:24:00,41.9,31.7,30.11,NW,318,3.2,6.0,67,0.00,CLR,,0.00,0.0,WeatherDisplay:10.37,2013-10-28 05:24:00,
2013-10-28 00:29:00,41.8,31.6,30.12,NNW,327,4.0,6.9,67,0.00,CLR,,0.00,0.0,WeatherDisplay:10.37,2013-10-28 05:29:00,
2013-10-28 00:34:00,41.6,31.4,30.12,North,9,0.0,0.0,67,0.00,CLR,,0.00,0.0,WeatherDisplay:10.37,2013-10-28 05:34:00,
2013-10-28 00:39:00,41.5,31.4,30.12,North,9,0.0,5.8,67,0.00,CLR,,0.00,0.0,WeatherDisplay:10.37,2013-10-28 05:39:00,
2013-10-28 00:44:00,41.2,31.4,30.12,NNE,14,0.0,0.0,68,0.00,CLR,,0.00,0.0,WeatherDisplay:10.37,2013-10-28 05:44:00,
2013-10-28 00:49:00,41.1,31.3,30.12,NE,47,1.0,4.8,68,0.00,CLR,,0.00,0.0,WeatherDisplay:10.37,2013-10-28 05:49:00,
2013-10-28 00:54:00,40.8,31.4,30.12,NNW,344,0.0,0.0,69,0.00,CLR,,0.00,0.0,WeatherDisplay:10.37,2013-10-28 05:54:00,
2013-10-28 00:59:00,40.5,31.1,30.13,North,11,0.0,2.3,69,0.00,CLR,,0.00,0.0,WeatherDisplay:10.37,2013-10-28 05:59:00,
2013-10-28 01:04:00,40.3,30.9,30.13,North,11,0.0,0.0,69,0.00,CLR,,0.00,0.0,WeatherDisplay:10.37,2013-10-28 06:04:00,
2013-10-28 01:09:00,40.2,31.2,30.13,North,11,0.0,0.0,70,0.00,CLR,,0.00,0.0,WeatherDisplay:10.37,2013-10-28 06:09:00,
2013-10-28 01:14:00,40.1,31.1,30.13,North,11,0.0,0.0,70,0.00,CLR,,0.00,0.0,WeatherDisplay:10.37,2013-10-28 06:14:00,
2013-10-28 01:19:00,39.8,31.2,30.13,North,11,0.0,0.0,71,0.00,CLR,,0.00,0.0,WeatherDisplay:10.37,2013-10-28 06:19:00,
2013-10-28 01:24:00,39.6,31.0,30.13,North,10,0.0,1.2,71,0.00,CLR,,0.00,0.0,WeatherDisplay:10.37,2013-10-28 06:24:00,
2013-10-28 01:29:00,39.5,30.9,30.14,North,10,0.0,0.0,71,0.00,CLR,,0.00,0.0,WeatherDisplay:10.37,2013-10-28 06:29:00,
2013-10-28 01:34:00,39.3,31.0,30.14,North,10,0.0,0.0,72,0.00,CLR,,0.00,0.0,WeatherDisplay:10.37,2013-10-28 06:34:00,
2013-10-28 01:39:00,39.2,30.9,30.14,NW,316,0.0,0.0,72,0.00,CLR,,0.00,0.0,WeatherDisplay:10.37,2013-10-28 06:39:00,
2013-10-28 01:44:00,39.1,31.2,30.15,NW,316,0.0,0.0,73,0.00,CLR,,0.00,0.0,WeatherDisplay:10.37,2013-10-28 06:44:00,
2013-10-28 01:49:00,38.8,30.9,30.15,NW,316,0.0,0.0,73,0.00,CLR,,0.00,0.0,WeatherDisplay:10.37,2013-10-28 06:49:00,
2013-10-28 01:54:00,38.5,30.9,30.15,NW,316,0.0,0.0,74,0.00,CLR,,0.00,0.0,WeatherDisplay:10.37,2013-10-28 06:54:00,
2013-10-28 01:59:00,38.2,31.0,30.15,NW,316,0.0,0.0,75,0.00,CLR,,0.00,0.0,WeatherDisplay:10.37,2013-10-28 06:59:00,
2013-10-28 02:04:00,37.9,30.7,30.15,NW,316,0.0,0.0,75,0.00,CLR,,0.00,0.0,WeatherDisplay:10.37,2013-10-28 07:04:00,
2013-10-28 02:09:00,37.6,30.7,30.15,NW,316,0.0,0.0,76,0.00,CLR,,0.00,0.0,WeatherDisplay:10.37,2013-10-28 07:09:00,
2013-10-28 02:14:00,37.3,30.4,30.16,NW,316,0.0,0.0,76,0.00,CLR,,0.00,0.0,WeatherDisplay:10.37,2013-10-28 07:14:00,
2013-10-28 02:19:00,37.0,30.5,30.16,NW,316,0.0,0.0,77,0.00,CLR,,0.00,0.0,WeatherDisplay:10.37,2013-10-28 07:19:00,
2013-10-28 02:24:00,36.9,30.4,30.16,NW,316,0.0,0.0,77,0.00,CLR,,0.00,0.0,WeatherDisplay:10.37,2013-10-28 07:24:00,
2013-10-28 02:29:00,36.8,30.6,30.17,NW,316,0.0,0.0,78,0.00,CLR,,0.00,0.0,WeatherDisplay:10.37,2013-10-28 07:29:00,
2013-10-28 02:34:00,36.6,30.4,30.17,NW,316,0.0,0.0,78,0.00,CLR,,0.00,0.0,WeatherDisplay:10.37,2013-10-28 07:34:00,
2013-10-28 02:39:00,36.5,30.6,30.17,NW,326,0.0,0.0,79,0.00,CLR,,0.00,0.0,WeatherDisplay:10.37,2013-10-28 07:39:00,
2013-10-28 02:44:00,36.5,30.6,30.18,NW,326,0.0,0.0,79,0.00,CLR,,0.00,0.0,WeatherDisplay:10.37,2013-10-28 07:44:00,
2013-10-28 02:49:00,36.3,30.4,30.18,NW,326,0.0,0.0,79,0.00,CLR,,0.00,0.0,WeatherDisplay:10.37,2013-10-28 07:49:00,
2013-10-28 02:54:00,36.0,30.1,30.18,NW,326,0.0,0.0,79,0.00,CLR,,0.00,0.0,WeatherDisplay:10.37,2013-10-28 07:54:00,
2013-10-28 02:59:00,35.9,30.0,30.18,NW,326,0.0,0.0,79,0.00,CLR,,0.00,0.0,WeatherDisplay:10.37,2013-10-28 07:59:00,
2013-10-28 03:04:00,35.8,30.2,30.18,NW,326,0.0,0.0,80,0.00,CLR,,0.00,0.0,WeatherDisplay:10.37,2013-10-28 08:04:00,
2013-10-28 03:09:00,35.5,29.9,30.18,NW,326,0.0,0.0,80,0.00,CLR,,0.00,0.0,WeatherDisplay:10.37,2013-10-28 08:09:00,
2013-10-28 03:14:00,35.3,30.1,30.18,NW,326,0.0,0.0,81,0.00,CLR,,0.00,0.0,WeatherDisplay:10.37,2013-10-28 08:14:00,
2013-10-28 03:19:00,35.3,30.1,30.19,NW,326,0.0,0.0,81,0.00,CLR,,0.00,0.0,WeatherDisplay:10.37,2013-10-28 08:19:00,
2013-10-28 03:24:00,35.5,30.2,30.19,NNW,327,0.0,1.2,81,0.00,CLR,,0.00,0.0,WeatherDisplay:10.37,2013-10-28 08:24:00,
2013-10-28 03:29:00,35.5,30.2,30.20,NNW,327,0.0,0.0,81,0.00,CLR,,0.00,0.0,WeatherDisplay:10.37,2013-10-28 08:29:00,
2013-10-28 03:35:00,35.3,30.1,30.20,NNW,327,0.0,0.0,81,0.00,CLR,,0.00,0.0,WeatherDisplay:10.37,2013-10-28 08:35:00,
2013-10-28 03:40:00,35.3,30.1,30.20,NNW,327,0.0,0.0,81,0.00,CLR,,0.00,0.0,WeatherDisplay:10.37,2013-10-28 08:40:00,
2013-10-28 03:45:00,35.3,30.4,30.21,North,5,0.0,3.5,82,0.00,CLR,,0.00,0.0,WeatherDisplay:10.37,2013-10-28 08:45:00,
2013-10-28 03:50:00,35.3,30.4,30.21,North,5,0.0,0.0,82,0.00,CLR,,0.00,0.0,WeatherDisplay:10.37,2013-10-28 08:50:00,
2013-10-28 03:55:00,35.0,30.1,30.21,North,5,0.0,0.0,82,0.00,CLR,,0.00,0.0,WeatherDisplay:10.37,2013-10-28 08:55:00,
2013-10-28 04:01:00,35.0,30.1,30.21,North,5,0.0,0.0,82,0.00,CLR,,0.00,0.0,WeatherDisplay:10.37,2013-10-28 09:01:00,
2013-10-28 04:06:00,35.0,30.1,30.21,North,5,0.0,0.0,82,0.00,CLR,,0.00,0.0,WeatherDisplay:10.37,2013-10-28 09:06:00,
2013-10-28 04:11:00,35.0,30.4,30.21,North,5,0.0,0.0,83,0.00,CLR,,0.00,0.0,WeatherDisplay:10.37,2013-10-28 09:11:00,
2013-10-28 04:16:00,34.9,30.3,30.23,North,5,0.0,0.0,83,0.00,CLR,,0.00,0.0,WeatherDisplay:10.37,2013-10-28 09:16:00,
2013-10-28 04:21:00,34.9,30.3,30.23,North,5,0.0,0.0,83,0.00,CLR,,0.00,0.0,WeatherDisplay:10.37,2013-10-28 09:21:00,
2013-10-28 04:26:00,34.9,30.3,30.23,North,5,0.0,0.0,83,0.00,CLR,,0.00,0.0,WeatherDisplay:10.37,2013-10-28 09:26:00,
2013-10-28 04:31:00,34.9,30.3,30.24,North,5,0.0,0.0,83,0.00,CLR,,0.00,0.0,WeatherDisplay:10.37,2013-10-28 09:31:00,
2013-10-28 04:36:00,34.9,30.3,30.24,North,5,0.0,0.0,83,0.00,CLR,,0.00,0.0,WeatherDisplay:10.37,2013-10-28 09:36:00,
2013-10-28 04:41:00,34.7,30.1,30.24,North,5,0.0,0.0,83,0.00,CLR,,0.00,0.0,WeatherDisplay:10.37,2013-10-28 09:41:00,
2013-10-28 04:46:00,34.7,30.1,30.25,North,5,0.0,0.0,83,0.00,CLR,,0.00,0.0,WeatherDisplay:10.37,2013-10-28 09:46:00,
2013-10-28 04:51:00,34.7,30.1,30.25,North,5,0.0,0.0,83,0.00,CLR,,0.00,0.0,WeatherDisplay:10.37,2013-10-28 09:51:00,
2013-10-28 04:56:00,34.6,30.3,30.25,North,5,0.0,0.0,84,0.00,CLR,,0.00,0.0,WeatherDisplay:10.37,2013-10-28 09:56:00,
2013-10-28 05:01:00,34.6,30.3,30.25,North,5,0.0,0.0,84,0.00,CLR,,0.00,0.0,WeatherDisplay:10.37,2013-10-28 10:01:00,
2013-10-28 05:06:00,34.4,30.1,30.25,North,5,0.0,0.0,84,0.00,SCT,,0.00,0.0,WeatherDisplay:10.37,2013-10-28 10:06:00,
2013-10-28 05:11:00,34.4,30.1,30.25,North,5,0.0,0.0,84,0.00,SCT,,0.00,0.0,WeatherDisplay:10.37,2013-10-28 10:11:00,
2013-10-28 05:16:00,34.3,30.0,30.26,North,5,0.0,0.0,84,0.00,SCT,,0.00,0.0,WeatherDisplay:10.37,2013-10-28 10:16:00,
2013-10-28 05:21:00,34.1,29.8,30.26,North,5,0.0,0.0,84,0.00,SCT,,0.00,0.0,WeatherDisplay:10.37,2013-10-28 10:21:00,
2013-10-28 05:26:00,34.0,30.0,30.26,North,5,0.0,0.0,85,0.00,BKN,,0.00,0.0,WeatherDisplay:10.37,2013-10-28 10:26:00,
2013-10-28 05:31:00,33.7,29.7,30.28,North,5,0.0,0.0,85,0.00,BKN,,0.00,0.0,WeatherDisplay:10.37,2013-10-28 10:31:00,
2013-10-28 05:36:00,33.5,29.8,30.28,North,5,0.0,0.0,86,0.00,BKN,,0.00,0.0,WeatherDisplay:10.37,2013-10-28 10:36:00,
2013-10-28 05:41:00,33.4,29.7,30.28,North,5,0.0,0.0,86,0.00,OVC,,0.00,0.0,WeatherDisplay:10.37,2013-10-28 10:41:00,
2013-10-28 05:46:00,33.1,29.4,30.28,North,5,0.0,0.0,86,0.00,OVC,,0.00,0.0,WeatherDisplay:10.37,2013-10-28 10:46:00,
2013-10-28 05:51:00,32.9,29.2,30.28,North,5,0.0,0.0,86,0.00,OVC,,0.00,0.0,WeatherDisplay:10.37,2013-10-28 10:51:00,
2013-10-28 05:56:00,32.9,29.5,30.28,North,5,0.0,0.0,87,0.00,OVC,,0.00,0.0,WeatherDisplay:10.37,2013-10-28 10:56:00,
2013-10-28 06:01:00,32.8,29.4,30.29,North,5,0.0,0.0,87,0.00,OVC,,0.00,0.0,WeatherDisplay:10.37,2013-10-28 11:01:00,
2013-10-28 06:06:00,32.8,29.6,30.29,North,5,0.0,0.0,88,0.00,OVC,,0.00,0.0,WeatherDisplay:10.37,2013-10-28 11:06:00,
2013-10-28 06:11:00,32.8,29.6,30.29,North,5,0.0,0.0,88,0.00,OVC,,0.00,0.0,WeatherDisplay:10.37,2013-10-28 11:11:00,
2013-10-28 06:16:00,32.8,29.6,30.29,North,5,0.0,0.0,88,0.00,OVC,,0.00,0.0,WeatherDisplay:10.37,2013-10-28 11:16:00,
2013-10-28 06:21:00,32.9,29.7,30.29,North,5,0.0,0.0,88,0.00,OVC,,0.00,0.0,WeatherDisplay:10.37,2013-10-28 11:21:00,
2013-10-28 06:26:00,33.1,29.9,30.29,NE,52,0.0,0.0,88,0.00,SCT,,0.00,0.0,WeatherDisplay:10.37,2013-10-28 11:26:00,
2013-10-28 06:31:00,33.4,29.9,30.30,NNW,331,0.0,1.2,87,0.00,SCT,,0.00,0.0,WeatherDisplay:10.37,2013-10-28 11:31:00,
2013-10-28 06:36:00,33.7,30.0,30.30,North,355,0.9,4.8,86,0.00,SCT,,0.00,0.0,WeatherDisplay:10.37,2013-10-28 11:36:00,
2013-10-28 06:41:00,33.8,29.8,30.30,ENE,63,1.2,6.0,85,0.00,SCT,,0.00,0.0,WeatherDisplay:10.37,2013-10-28 11:41:00,
2013-10-28 06:46:00,34.0,29.4,30.31,ESE,102,3.0,8.4,83,0.00,CLR,,0.00,0.0,WeatherDisplay:10.37,2013-10-28 11:46:00,
2013-10-28 06:51:00,34.1,29.2,30.31,North,11,0.7,4.8,82,0.00,CLR,,0.00,0.0,WeatherDisplay:10.37,2013-10-28 11:51:00,
2013-10-28 06:56:00,34.1,28.6,30.31,NNE,27,0.0,0.0,80,0.00,CLR,,0.00,0.0,WeatherDisplay:10.37,2013-10-28 11:56:00,
2013-10-28 07:01:00,34.0,28.2,30.31,NNE,32,0.0,2.3,79,0.00,SCT,,0.00,0.0,WeatherDisplay:10.37,2013-10-28 12:01:00,
2013-10-28 07:06:00,33.7,27.9,30.31,NNE,32,0.0,0.0,79,0.00,SCT,,0.00,0.0,WeatherDisplay:10.37,2013-10-28 12:06:00,
2013-10-28 07:11:00,33.5,27.7,30.31,NE,53,0.0,0.0,79,0.00,SCT,,0.00,0.0,WeatherDisplay:10.37,2013-10-28 12:11:00,
2013-10-28 07:16:00,33.4,27.3,30.32,NE,53,0.0,0.0,78,0.00,SCT,,0.00,0.0,WeatherDisplay:10.37,2013-10-28 12:16:00,
2013-10-28 07:21:00,33.2,27.4,30.32,NE,53,0.0,0.0,79,0.00,CLR,,0.00,0.0,WeatherDisplay:10.37,2013-10-28 12:21:00,
2013-10-28 07:26:00,33.1,27.3,30.32,NE,53,0.0,0.0,79,0.00,CLR,,0.00,0.0,WeatherDisplay:10.37,2013-10-28 12:26:00,
2013-10-28 07:31:00,32.9,27.1,30.33,NE,53,0.0,0.0,79,0.00,CLR,,0.00,0.0,WeatherDisplay:10.37,2013-10-28 12:31:00,
2013-10-28 07:36:00,32.8,27.0,30.33,NE,53,0.0,0.0,79,0.00,CLR,,0.00,5.0,WeatherDisplay:10.37,2013-10-28 12:36:00,
2013-10-28 07:41:00,32.7,26.9,30.33,NE,53,0.0,0.0,79,0.00,CLR,,0.00,9.0,WeatherDisplay:10.37,2013-10-28 12:41:00,
2013-10-28 07:46:00,32.5,27.0,30.34,NE,53,0.0,0.0,80,0.00,CLR,,0.00,11.0,WeatherDisplay:10.37,2013-10-28 12:46:00,
2013-10-28 07:51:00,32.5,27.3,30.34,NE,53,0.0,0.0,81,0.00,CLR,,0.00,16.0,WeatherDisplay:10.37,2013-10-28 12:51:00,
2013-10-28 07:56:00,32.7,27.5,30.34,NE,53,0.0,0.0,81,0.00,CLR,,0.00,19.0,WeatherDisplay:10.37,2013-10-28 12:56:00,
2013-10-28 08:01:00,32.8,27.6,30.35,NE,53,0.0,0.0,81,0.00,CLR,,0.00,25.0,WeatherDisplay:10.37,2013-10-28 13:01:00,
2013-10-28 08:06:00,32.8,27.3,30.35,NE,53,0.0,0.0,80,0.00,CLR,,0.00,26.0,WeatherDisplay:10.37,2013-10-28 13:06:00,
2013-10-28 08:11:00,33.1,27.6,30.35,NE,53,0.0,0.0,80,0.00,CLR,,0.00,30.0,WeatherDisplay:10.37,2013-10-28 13:11:00,
2013-10-28 08:16:00,33.2,27.4,30.36,NE,53,0.0,1.2,79,0.00,CLR,,0.00,33.0,WeatherDisplay:10.37,2013-10-28 13:16:00,
2013-10-28 08:21:00,33.4,27.6,30.36,North,5,2.9,7.2,79,0.00,CLR,,0.00,39.0,WeatherDisplay:10.37,2013-10-28 13:21:00,
2013-10-28 08:26:00,33.7,27.3,30.36,NNE,15,0.0,0.0,77,0.00,CLR,,0.00,42.0,WeatherDisplay:10.37,2013-10-28 13:26:00,
2013-10-28 08:31:00,33.8,27.0,30.37,North,9,0.0,0.0,76,0.00,CLR,,0.00,46.0,WeatherDisplay:10.37,2013-10-28 13:31:00,
2013-10-28 08:36:00,34.1,27.0,30.37,NNE,13,2.4,4.8,75,0.00,CLR,,0.00,47.0,WeatherDisplay:10.37,2013-10-28 13:36:00,
2013-10-28 08:41:00,34.1,26.7,30.37,North,355,0.5,5.8,74,0.00,CLR,,0.00,53.0,WeatherDisplay:10.37,2013-10-28 13:41:00,
2013-10-28 08:46:00,34.3,26.9,30.37,North,9,0.0,2.3,74,0.00,CLR,,0.00,60.0,WeatherDisplay:10.37,2013-10-28 13:46:00,
2013-10-28 08:51:00,34.3,26.5,30.37,NNE,14,2.7,6.0,73,0.00,CLR,,0.00,65.0,WeatherDisplay:10.37,2013-10-28 13:51:00,
2013-10-28 08:56:00,34.4,26.6,30.37,North,9,0.8,4.6,73,0.00,CLR,,0.00,67.0,WeatherDisplay:10.37,2013-10-28 13:56:00,
2013-10-28 09:01:00,34.4,26.3,30.38,NE,39,2.3,6.0,72,0.00,CLR,,0.00,79.0,WeatherDisplay:10.37,2013-10-28 14:01:00,
2013-10-28 09:06:00,34.6,26.5,30.38,North,5,5.7,8.4,72,0.00,CLR,,0.00,74.0,WeatherDisplay:10.37,2013-10-28 14:06:00,
2013-10-28 09:11:00,34.7,26.3,30.38,NNE,19,1.4,4.8,71,0.00,CLR,,0.00,81.0,WeatherDisplay:10.37,2013-10-28 14:11:00,
2013-10-28 09:16:00,34.7,26.3,30.39,North,355,1.6,6.0,71,0.00,CLR,,0.00,88.0,WeatherDisplay:10.37,2013-10-28 14:16:00,
2013-10-28 09:21:00,34.9,26.4,30.39,NNE,22,0.4,6.9,71,0.00,SCT,,0.00,93.0,WeatherDisplay:10.37,2013-10-28 14:21:00,
2013-10-28 09:26:00,34.9,26.4,30.39,NE,34,5.7,7.2,71,0.00,SCT,,0.00,93.0,WeatherDisplay:10.37,2013-10-28 14:26:00,
2013-10-28 09:31:00,35.0,26.5,30.40,NE,34,6.1,7.2,71,0.00,SCT,,0.00,98.0,WeatherDisplay:10.37,2013-10-28 14:31:00,
2013-10-28 09:36:00,35.0,26.2,30.40,NNE,26,2.9,7.2,70,0.00,SCT,,0.00,97.0,WeatherDisplay:10.37,2013-10-28 14:36:00,
2013-10-28 09:41:00,35.2,26.4,30.40,NE,56,5.5,10.8,70,0.00,BKN,,0.00,127.0,WeatherDisplay:10.37,2013-10-28 14:41:00,
2013-10-28 09:46:00,35.3,26.5,30.40,NE,41,4.5,6.9,70,0.00,BKN,,0.00,146.0,WeatherDisplay:10.37,2013-10-28 14:46:00,
2013-10-28 09:51:00,35.3,26.5,30.40,NNE,25,4.5,8.4,70,0.00,BKN,,0.00,158.0,WeatherDisplay:10.37,2013-10-28 14:51:00,
2013-10-28 09:56:00,35.6,26.8,30.40,ESE,117,4.5,13.2,70,0.00,BKN,,0.00,225.0,WeatherDisplay:10.37,2013-10-28 14:56:00,
2013-10-28 10:01:00,35.8,26.6,30.40,NE,35,1.6,8.1,69,0.00,SCT,,0.00,308.0,WeatherDisplay:10.37,2013-10-28 15:01:00,
2013-10-28 10:06:00,36.2,26.6,30.40,NE,46,6.0,9.6,68,0.00,SCT,,0.00,292.0,WeatherDisplay:10.37,2013-10-28 15:06:00,
2013-10-28 10:11:00,36.3,26.7,30.40,North,355,3.6,4.8,68,0.00,SCT,,0.00,450.0,WeatherDisplay:10.37,2013-10-28 15:11:00,
2013-10-28 10:16:00,36.8,26.9,30.40,East,82,2.0,4.8,67,0.00,SCT,,0.00,517.0,WeatherDisplay:10.37,2013-10-28 15:16:00,
2013-10-28 10:21:00,37.2,26.9,30.40,North,11,4.0,7.2,66,0.00,BKN,,0.00,425.0,WeatherDisplay:10.37,2013-10-28 15:21:00,
2013-10-28 10:26:00,37.2,26.9,30.40,NE,38,2.1,6.9,66,0.00,BKN,,0.00,232.0,WeatherDisplay:10.37,2013-10-28 15:26:00,
2013-10-28 10:31:00,37.9,27.5,30.42,NNE,26,0.7,3.6,66,0.00,BKN,,0.00,538.0,WeatherDisplay:10.37,2013-10-28 15:31:00,
2013-10-28 10:36:00,37.9,26.8,30.42,NNE,28,2.0,7.2,64,0.00,BKN,,0.00,265.0,WeatherDisplay:10.37,2013-10-28 15:36:00,
2013-10-28 10:41:00,37.2,26.5,30.42,ENE,72,2.8,6.0,65,0.00,OVC,,0.00,265.0,WeatherDisplay:10.37,2013-10-28 15:41:00,
2013-10-28 10:46:00,37.2,26.9,30.42,NNE,26,0.4,8.1,66,0.00,OVC,,0.00,257.0,WeatherDisplay:10.37,2013-10-28 15:46:00,
2013-10-28 10:51:00,37.5,27.2,30.42,East,94,1.9,6.0,66,0.00,OVC,,0.00,290.0,WeatherDisplay:10.37,2013-10-28 15:51:00,
2013-10-28 10:56:00,37.6,26.9,30.42,East,81,6.2,16.8,65,0.00,OVC,,0.00,269.0,WeatherDisplay:10.37,2013-10-28 15:56:00,
2013-10-28 11:01:00,37.8,27.1,30.42,NE,35,7.5,14.4,65,0.00,OVC,,0.00,257.0,WeatherDisplay:10.37,2013-10-28 16:01:00,
2013-10-28 11:06:00,37.9,26.8,30.42,NNE,32,1.8,4.8,64,0.00,OVC,,0.00,236.0,WeatherDisplay:10.37,2013-10-28 16:06:00,
2013-10-28 11:11:00,38.0,26.9,30.42,NE,40,4.0,8.4,64,0.00,OVC,,0.00,232.0,WeatherDisplay:10.37,2013-10-28 16:11:00,
2013-10-28 11:16:00,38.0,26.5,30.42,NNE,19,0.5,3.5,63,0.00,OVC,,0.00,243.0,WeatherDisplay:10.37,2013-10-28 16:16:00,
2013-10-28 11:21:00,38.2,26.7,30.42,East,79,0.0,0.0,63,0.00,OVC,,0.00,234.0,WeatherDisplay:10.37,2013-10-28 16:21:00,
2013-10-28 11:26:00,38.5,26.6,30.42,NNE,26,7.7,14.4,62,0.00,BKN,,0.00,232.0,WeatherDisplay:10.37,2013-10-28 16:26:00,
2013-10-28 11:31:00,38.5,27.0,30.42,North,5,2.0,4.8,63,0.00,BKN,,0.00,264.0,WeatherDisplay:10.37,2013-10-28 16:31:00,
2013-10-28 11:36:00,38.8,26.9,30.42,East,100,4.0,7.2,62,0.00,BKN,,0.00,294.0,WeatherDisplay:10.37,2013-10-28 16:36:00,
2013-10-28 11:41:00,39.1,27.2,30.42,NE,36,0.0,0.0,62,0.00,BKN,,0.00,276.0,WeatherDisplay:10.37,2013-10-28 16:41:00,
2013-10-28 11:46:00,39.2,26.9,30.42,North,355,5.1,7.2,61,0.00,SCT,,0.00,241.0,WeatherDisplay:10.37,2013-10-28 16:46:00,
2013-10-28 11:51:00,39.1,26.8,30.42,NNE,17,0.9,4.6,61,0.00,SCT,,0.00,255.0,WeatherDisplay:10.37,2013-10-28 16:51:00,
2013-10-28 11:56:00,38.9,26.6,30.42,ENE,78,0.4,8.1,61,0.00,SCT,,0.00,243.0,WeatherDisplay:10.37,2013-10-28 16:56:00,
2013-10-28 12:01:00,39.2,26.9,30.42,NE,47,5.0,8.4,61,0.00,SCT,,0.00,274.0,WeatherDisplay:10.37,2013-10-28 17:01:00,
2013-10-28 12:06:00,39.5,27.2,30.42,NNE,16,4.9,8.4,61,0.00,SCT,,0.00,269.0,WeatherDisplay:10.37,2013-10-28 17:06:00,
2013-10-28 12:11:00,39.5,27.2,30.42,NNE,13,0.0,0.0,61,0.00,SCT,,0.00,253.0,WeatherDisplay:10.37,2013-10-28 17:11:00,
2013-10-28 12:16:00,39.6,27.2,30.43,North,9,2.2,8.4,61,0.00,SCT,,0.00,243.0,WeatherDisplay:10.37,2013-10-28 17:16:00,
2013-10-28 12:21:00,39.6,27.2,30.43,NNE,14,0.8,4.8,61,0.00,SCT,,0.00,244.0,WeatherDisplay:10.37,2013-10-28 17:21:00,
2013-10-28 12:26:00,39.6,26.8,30.43,NE,46,0.1,2.3,60,0.00,OVC,,0.00,218.0,WeatherDisplay:10.37,2013-10-28 17:26:00,
2013-10-28 12:31:00,39.9,27.1,30.43,ENE,74,2.0,4.8,60,0.00,OVC,,0.00,230.0,WeatherDisplay:10.37,2013-10-28 17:31:00,
2013-10-28 12:36:00,40.1,27.3,30.43,NE,52,2.8,6.0,60,0.00,OVC,,0.00,250.0,WeatherDisplay:10.37,2013-10-28 17:36:00,
2013-10-28 12:41:00,40.2,27.4,30.43,NNE,28,0.0,0.0,60,0.00,OVC,,0.00,220.0,WeatherDisplay:10.37,2013-10-28 17:41:00,
2013-10-28 12:46:00,40.2,27.0,30.42,NE,35,0.0,0.0,59,0.00,OVC,,0.00,227.0,WeatherDisplay:10.37,2013-10-28 17:46:00,
2013-10-28 12:51:00,40.2,27.0,30.42,ENE,69,0.5,6.9,59,0.00,OVC,,0.00,190.0,WeatherDisplay:10.37,2013-10-28 17:51:00,
2013-10-28 12:56:00,40.3,27.5,30.42,NE,55,0.1,2.4,60,0.00,OVC,,0.00,179.0,WeatherDisplay:10.37,2013-10-28 17:56:00,
2013-10-28 13:01:00,40.3,27.1,30.42,ESE,123,1.1,4.8,59,0.00,OVC,,0.00,167.0,WeatherDisplay:10.37,2013-10-28 18:01:00,
2013-10-28 13:06:00,40.3,27.1,30.42,NE,52,1.1,3.6,59,0.00,OVC,,0.00,169.0,WeatherDisplay:10.37,2013-10-28 18:06:00,
2013-10-28 13:11:00,40.5,27.3,30.42,ENE,62,0.9,9.2,59,0.00,OVC,,0.00,174.0,WeatherDisplay:10.37,2013-10-28 18:11:00,
2013-10-28 13:16:00,40.5,27.3,30.42,East,95,1.9,7.2,59,0.00,OVC,,0.00,193.0,WeatherDisplay:10.37,2013-10-28 18:16:00,
2013-10-28 13:21:00,40.6,27.4,30.42,East,95,4.2,8.4,59,0.00,OVC,,0.00,188.0,WeatherDisplay:10.37,2013-10-28 18:21:00,
2013-10-28 13:26:00,40.8,27.6,30.42,NNW,344,0.4,2.4,59,0.00,OVC,,0.00,174.0,WeatherDisplay:10.37,2013-10-28 18:26:00,
2013-10-28 13:31:00,40.8,27.6,30.41,NE,37,1.3,8.4,59,0.00,OVC,,0.00,151.0,WeatherDisplay:10.37,2013-10-28 18:31:00,
2013-10-28 13:36:00,40.6,27.4,30.41,NNE,13,0.0,5.8,59,0.00,OVC,,0.00,153.0,WeatherDisplay:10.37,2013-10-28 18:36:00,
2013-10-28 13:41:00,40.5,27.3,30.41,ENE,67,4.0,9.6,59,0.00,OVC,,0.00,169.0,WeatherDisplay:10.37,2013-10-28 18:41:00,
2013-10-28 13:46:00,40.6,27.4,30.40,NNE,16,3.0,6.0,59,0.00,OVC,,0.00,169.0,WeatherDisplay:10.37,2013-10-28 18:46:00,
2013-10-28 13:51:00,40.6,27.4,30.40,NE,34,3.9,7.2,59,0.00,OVC,,0.00,163.0,WeatherDisplay:10.37,2013-10-28 18:51:00,
2013-10-28 13:56:00,40.6,27.4,30.40,North,5,0.0,5.8,59,0.00,OVC,,0.00,148.0,WeatherDisplay:10.37,2013-10-28 18:56:00,
2013-10-28 14:01:00,40.8,27.6,30.40,ENE,71,2.4,7.2,59,0.00,OVC,,0.00,134.0,WeatherDisplay:10.37,2013-10-28 19:01:00,
2013-10-28 14:06:00,40.9,27.7,30.40,ENE,66,0.0,0.0,59,0.00,OVC,,0.00,130.0,WeatherDisplay:10.37,2013-10-28 19:06:00,
2013-10-28 14:11:00,41.1,27.9,30.40,ENE,78,0.0,1.2,59,0.00,OVC,,0.00,123.0,WeatherDisplay:10.37,2013-10-28 19:11:00,
2013-10-28 14:16:00,41.1,27.4,30.40,NE,36,1.9,6.0,58,0.00,OVC,,0.00,125.0,WeatherDisplay:10.37,2013-10-28 19:16:00,
2013-10-28 14:21:00,40.9,27.7,30.40,ENE,57,1.6,3.6,59,0.00,OVC,,0.00,134.0,WeatherDisplay:10.37,2013-10-28 19:21:00,
2013-10-28 14:26:00,40.9,27.7,30.40,NE,51,2.1,5.8,59,0.00,OVC,,0.00,169.0,WeatherDisplay:10.37,2013-10-28 19:26:00,
2013-10-28 14:31:00,40.9,27.7,30.40,ENE,59,0.0,1.2,59,0.00,OVC,,0.00,155.0,WeatherDisplay:10.37,2013-10-28 19:31:00,
2013-10-28 14:36:00,41.1,27.9,30.40,ENE,59,0.0,0.0,59,0.00,OVC,,0.00,135.0,WeatherDisplay:10.37,2013-10-28 19:36:00,
2013-10-28 14:41:00,41.3,27.6,30.40,ENE,65,0.6,2.4,58,0.00,OVC,,0.00,141.0,WeatherDisplay:10.37,2013-10-28 19:41:00,
2013-10-28 14:46:00,41.3,27.6,30.40,NE,43,0.2,1.2,58,0.00,OVC,,0.00,127.0,WeatherDisplay:10.37,2013-10-28 19:46:00,
2013-10-28 14:51:00,41.3,27.6,30.40,East,94,0.0,1.2,58,0.00,OVC,,0.00,107.0,WeatherDisplay:10.37,2013-10-28 19:51:00,
2013-10-28 14:56:00,41.3,27.6,30.40,ENE,61,2.1,4.8,58,0.00,OVC,,0.00,114.0,WeatherDisplay:10.37,2013-10-28 19:56:00,
2013-10-28 15:01:00,41.2,27.9,30.40,NE,34,0.1,1.2,59,0.00,OVC,,0.00,113.0,WeatherDisplay:10.37,2013-10-28 20:01:00,
2013-10-28 15:06:00,41.1,27.9,30.40,ENE,59,0.0,1.2,59,0.00,OVC,,0.00,107.0,WeatherDisplay:10.37,2013-10-28 20:06:00,
2013-10-28 15:11:00,41.1,27.4,30.40,NNE,13,0.0,1.2,58,0.00,OVC,,0.00,100.0,WeatherDisplay:10.37,2013-10-28 20:11:00,
2013-10-28 15:16:00,41.1,27.9,30.40,East,96,4.4,10.8,59,0.00,OVC,,0.00,95.0,WeatherDisplay:10.37,2013-10-28 20:16:00,
2013-10-28 15:21:00,41.1,27.4,30.40,North,11,1.2,3.6,58,0.00,OVC,,0.00,86.0,WeatherDisplay:10.37,2013-10-28 20:21:00,
2013-10-28 15:26:00,41.1,27.4,30.40,NNE,28,4.1,6.0,58,0.00,OVC,,0.00,79.0,WeatherDisplay:10.37,2013-10-28 20:26:00,
2013-10-28 15:31:00,41.2,27.9,30.41,NNE,27,0.2,2.4,59,0.00,OVC,,0.00,76.0,WeatherDisplay:10.37,2013-10-28 20:31:00,
2013-10-28 15:36:00,41.1,27.4,30.41,East,80,1.0,4.8,58,0.00,OVC,,0.00,74.0,WeatherDisplay:10.37,2013-10-28 20:36:00,
2013-10-28 15:41:00,41.1,27.4,30.41,ENE,78,0.6,4.6,58,0.00,OVC,,0.00,72.0,WeatherDisplay:10.37,2013-10-28 20:41:00,
2013-10-28 15:46:00,41.1,27.4,30.41,ENE,65,0.0,0.0,58,0.00,OVC,,0.00,67.0,WeatherDisplay:10.37,2013-10-28 20:46:00,
2013-10-28 15:51:00,41.1,27.4,30.41,North,5,1.2,4.8,58,0.00,OVC,,0.00,60.0,WeatherDisplay:10.37,2013-10-28 20:51:00,
2013-10-28 15:56:00,41.1,27.9,30.41,NNE,13,1.1,4.8,59,0.00,OVC,,0.00,54.0,WeatherDisplay:10.37,2013-10-28 20:56:00,
2013-10-28 16:01:00,41.1,27.4,30.41,East,89,1.0,6.0,58,0.00,OVC,,0.00,51.0,WeatherDisplay:10.37,2013-10-28 21:01:00,
2013-10-28 16:06:00,41.1,27.9,30.41,NNE,18,0.0,0.0,59,0.00,OVC,,0.00,44.0,WeatherDisplay:10.37,2013-10-28 21:06:00,
2013-10-28 16:11:00,41.1,27.9,30.41,NNE,17,0.0,0.0,59,0.00,OVC,,0.00,42.0,WeatherDisplay:10.37,2013-10-28 21:11:00,
2013-10-28 16:16:00,41.1,27.9,30.41,NE,51,0.9,5.8,59,0.00,OVC,,0.00,44.0,WeatherDisplay:10.37,2013-10-28 21:16:00,
2013-10-28 16:21:00,41.1,27.9,30.41,ENE,75,1.3,3.6,59,0.00,OVC,,0.00,40.0,WeatherDisplay:10.37,2013-10-28 21:21:00,
2013-10-28 17:42:00,40.6,28.2,30.41,ENE,76,0.0,7.2,61,0.00,OVC,,0.00,0.0,WeatherDisplay:10.37,2013-10-28 22:42:00,
2013-10-28 17:47:00,40.6,28.2,30.41,ENE,77,0.7,2.4,61,0.00,OVC,,0.00,0.0,WeatherDisplay:10.37,2013-10-28 22:47:00,
2013-10-28 17:52:00,40.6,28.2,30.41,ENE,77,0.0,0.0,61,0.00,OVC,,0.00,0.0,WeatherDisplay:10.37,2013-10-28 22:52:00,
2013-10-28 17:57:00,40.6,28.2,30.41,East,79,0.0,0.0,61,0.00,OVC,,0.00,0.0,WeatherDisplay:10.37,2013-10-28 22:57:00,
2013-10-28 18:02:00,40.5,28.1,30.41,ENE,77,0.0,1.2,61,0.00,OVC,,0.00,0.0,WeatherDisplay:10.37,2013-10-28 23:02:00,
2013-10-28 18:07:00,40.5,28.1,30.41,ENE,69,0.0,0.0,61,0.00,OVC,,0.00,0.0,WeatherDisplay:10.37,2013-10-28 23:07:00,
2013-10-28 18:12:00,40.5,28.5,30.41,ENE,69,0.0,2.3,62,0.00,OVC,,0.00,0.0,WeatherDisplay:10.37,2013-10-28 23:12:00,
2013-10-28 18:17:00,40.5,28.5,30.41,ENE,69,0.0,0.0,62,0.00,OVC,,0.00,0.0,WeatherDisplay:10.37,2013-10-28 23:17:00,
2013-10-28 18:22:00,40.3,28.3,30.41,ENE,69,0.0,0.0,62,0.00,OVC,,0.00,0.0,WeatherDisplay:10.37,2013-10-28 23:22:00,
2013-10-28 18:27:00,40.3,28.3,30.41,ENE,69,0.0,0.0,62,0.00,OVC,,0.00,0.0,WeatherDisplay:10.37,2013-10-28 23:27:00,
2013-10-28 18:32:00,40.3,28.3,30.41,ENE,69,0.0,0.0,62,0.00,OVC,,0.00,0.0,WeatherDisplay:10.37,2013-10-28 23:32:00,
2013-10-28 18:37:00,40.3,28.3,30.41,NE,46,0.2,1.2,62,0.00,OVC,,0.00,0.0,WeatherDisplay:10.37,2013-10-28 23:37:00,
2013-10-28 18:42:00,40.3,28.7,30.41,NE,46,0.0,0.0,63,0.00,OVC,,0.00,0.0,WeatherDisplay:10.37,2013-10-28 23:42:00,
2013-10-28 18:47:00,40.2,28.6,30.42,NE,46,0.0,0.0,63,0.00,OVC,,0.00,0.0,WeatherDisplay:10.37,2013-10-28 23:47:00,